RUK8JN EGSS-LATI

Flight info

Callsign RUK8JN
Flight time N/A
Altitude 35000
Route CLN5S CLN M84 KONAN DCT KOK UL607 FERDI DCT REMBA DCT RITAX DCT SUTAL DCT GTQ DCT BEGAR DCT TRA DCT SUXAN DCT ROKIB DCT ROTAR DCT LOS DCT SIPAL DCT PETAK PETAK3N
Aircraft B738/M-SDE2E3FGHIRWXY/LB1

Departure

Time N/A
Airport London Stansted Airport (EGSS)

Arrival

Time 2026-05-01 09:59
Airport Tirana International Airport Mother Teresa (LATI)
Time Latitude Longitude Altitude Speed Heading
2026-05-01 07:23 51.84186 0.97122 7472 ft 274 kts 89°
2026-05-01 07:23 51.84405 1.03310 8463 ft 278 kts 90°
2026-05-01 07:24 51.84513 1.06452 8972 ft 282 kts 90°
2026-05-01 07:24 51.84622 1.09620 9467 ft 282 kts 90°
2026-05-01 07:24 51.84558 1.12767 9947 ft 279 kts 107°
2026-05-01 07:24 51.83706 1.15524 10457 ft 274 kts 130°
2026-05-01 07:25 51.82306 1.17587 10964 ft 273 kts 146°
2026-05-01 07:25 51.80721 1.19285 11480 ft 275 kts 147°
2026-05-01 07:25 51.79112 1.20970 11963 ft 277 kts 148°
2026-05-01 07:25 51.77487 1.22660 12475 ft 278 kts 148°
2026-05-01 07:26 51.75855 1.24367 12975 ft 281 kts 147°
2026-05-01 07:26 51.74206 1.26096 13486 ft 283 kts 147°
2026-05-01 07:26 51.72547 1.27841 13979 ft 286 kts 147°
2026-05-01 07:26 51.70875 1.29601 14483 ft 288 kts 147°
2026-05-01 07:27 51.69196 1.31366 14985 ft 289 kts 148°
2026-05-01 07:27 51.67507 1.33141 15484 ft 290 kts 147°
2026-05-01 07:27 51.65778 1.34840 15979 ft 292 kts 155°
2026-05-01 07:27 51.63865 1.35938 16485 ft 293 kts 165°
2026-05-01 07:28 51.61845 1.36449 16906 ft 300 kts 175°
2026-05-01 07:28 51.59681 1.36608 17040 ft 321 kts 177°
2026-05-01 07:28 51.57378 1.36712 17186 ft 341 kts 177°
2026-05-01 07:28 51.54952 1.36820 17423 ft 355 kts 177°
2026-05-01 07:29 51.52464 1.36950 17970 ft 360 kts 177°
2026-05-01 07:29 51.49950 1.37098 18623 ft 362 kts 177°
2026-05-01 07:29 51.47422 1.37252 19250 ft 365 kts 176°
2026-05-01 07:29 51.44915 1.37874 19769 ft 368 kts 160°
2026-05-01 07:30 51.42650 1.39786 20373 ft 370 kts 144°
2026-05-01 07:30 51.40794 1.42672 20926 ft 375 kts 130°
2026-05-01 07:30 51.39183 1.45967 21448 ft 379 kts 129°
2026-05-01 07:30 51.37588 1.49350 21944 ft 382 kts 128°
2026-05-01 07:31 51.36529 1.51612 22264 ft 384 kts 128°
2026-05-01 07:31 51.31627 1.61935 23728 ft 392 kts 129°
2026-05-01 07:32 51.28271 1.68882 24622 ft 398 kts 129°
2026-05-01 07:32 51.26570 1.72390 25067 ft 400 kts 129°
2026-05-01 07:33 51.23136 1.79452 25890 ft 405 kts 129°
2026-05-01 07:33 51.21404 1.83010 26289 ft 407 kts 129°
2026-05-01 07:33 51.17905 1.90183 27052 ft 412 kts 129°
2026-05-01 07:34 51.16139 1.93795 27403 ft 415 kts 129°
2026-05-01 07:34 51.13390 2.01921 28073 ft 424 kts 110°
2026-05-01 07:34 51.12671 2.06496 28388 ft 429 kts 100°
2026-05-01 07:35 51.12377 2.11246 28722 ft 432 kts 96°
2026-05-01 07:35 51.12151 2.16032 29031 ft 434 kts 96°
2026-05-01 07:35 51.11932 2.20836 29326 ft 437 kts 96°
2026-05-01 07:35 51.11699 2.25665 29643 ft 438 kts 96°
2026-05-01 07:36 51.11451 2.30497 30045 ft 437 kts 97°
2026-05-01 07:36 51.11193 2.35307 30490 ft 435 kts 97°
2026-05-01 07:36 51.10929 2.40084 30888 ft 434 kts 97°
2026-05-01 07:36 51.10660 2.44872 31200 ft 435 kts 97°
2026-05-01 07:37 51.10118 2.54452 31872 ft 434 kts 97°
2026-05-01 07:37 51.09845 2.59230 32231 ft 433 kts 97°
2026-05-01 07:37 51.09560 2.63999 32579 ft 432 kts 98°
2026-05-01 07:38 51.09002 2.68685 32863 ft 431 kts 107°
2026-05-01 07:38 51.08181 2.73259 33173 ft 431 kts 108°
2026-05-01 07:38 51.06449 2.82383 33793 ft 430 kts 108°
2026-05-01 07:39 51.05593 2.86923 34101 ft 429 kts 108°
2026-05-01 07:39 51.04746 2.91469 34367 ft 430 kts 108°
2026-05-01 07:39 51.03078 3.00511 34962 ft 428 kts 107°
2026-05-01 07:40 51.02244 3.05054 35204 ft 429 kts 107°
2026-05-01 07:40 51.01405 3.09612 35249 ft 433 kts 107°
2026-05-01 07:40 50.99707 3.18822 35273 ft 434 kts 107°
2026-05-01 07:41 50.98017 3.27929 35251 ft 427 kts 108°
2026-05-01 07:42 50.95489 3.41479 35253 ft 427 kts 107°
2026-05-01 07:42 50.93794 3.50495 35256 ft 427 kts 107°
2026-05-01 07:43 50.92095 3.59509 35268 ft 427 kts 107°
2026-05-01 07:43 50.89523 3.73031 35269 ft 428 kts 108°
2026-05-01 07:44 50.86053 3.91081 35273 ft 429 kts 108°
2026-05-01 07:45 50.84305 4.00120 35290 ft 430 kts 108°
2026-05-01 07:45 50.82547 4.09182 35289 ft 431 kts 107°
2026-05-01 07:46 50.80779 4.18244 35289 ft 432 kts 107°
2026-05-01 07:47 50.78108 4.31840 35290 ft 432 kts 107°
2026-05-01 07:47 50.76318 4.40907 35294 ft 432 kts 107°
2026-05-01 07:48 50.73622 4.54490 35296 ft 432 kts 107°
2026-05-01 07:48 50.71816 4.63533 35297 ft 432 kts 107°
2026-05-01 07:49 50.69094 4.77092 35297 ft 432 kts 107°
2026-05-01 07:50 50.67259 4.86111 35291 ft 432 kts 110°
2026-05-01 07:50 50.64317 4.94303 35296 ft 431 kts 129°
2026-05-01 07:50 50.62273 4.97757 35302 ft 431 kts 135°
2026-05-01 07:51 50.58000 5.04286 35293 ft 431 kts 135°
2026-05-01 07:52 50.51534 5.14121 35297 ft 431 kts 135°
2026-05-01 07:52 50.47245 5.20712 35293 ft 432 kts 135°
2026-05-01 07:53 50.40807 5.30606 35294 ft 432 kts 135°
2026-05-01 07:53 50.36503 5.37197 35294 ft 433 kts 135°
2026-05-01 07:55 50.25707 5.53648 35296 ft 433 kts 135°
2026-05-01 07:56 50.14875 5.70045 35299 ft 435 kts 135°
2026-05-01 07:57 50.08334 5.79865 35293 ft 436 kts 137°
2026-05-01 07:58 49.98135 5.90149 35291 ft 438 kts 147°
2026-05-01 07:59 49.87767 6.00060 35298 ft 437 kts 147°
2026-05-01 08:00 49.72253 6.14938 35293 ft 437 kts 147°
2026-05-01 08:01 49.61958 6.24749 35296 ft 436 kts 147°
2026-05-01 08:02 49.54215 6.32094 35294 ft 436 kts 147°
2026-05-01 08:03 49.46460 6.39387 35290 ft 436 kts 149°
2026-05-01 08:03 49.38148 6.45155 35294 ft 437 kts 155°
2026-05-01 08:04 49.26978 6.52557 35302 ft 437 kts 154°
2026-05-01 08:05 49.18620 6.58190 35306 ft 438 kts 154°
2026-05-01 08:06 49.10238 6.63819 35307 ft 439 kts 154°
2026-05-01 08:07 48.99036 6.71309 35306 ft 440 kts 154°
2026-05-01 08:08 48.90924 6.77773 35302 ft 438 kts 149°
2026-05-01 08:09 48.80225 6.86664 35301 ft 439 kts 149°
2026-05-01 08:09 48.74850 6.91059 35304 ft 439 kts 150°
2026-05-01 08:10 48.64100 6.99799 35303 ft 439 kts 149°
2026-05-01 08:11 48.53325 7.08517 35305 ft 439 kts 149°
2026-05-01 08:12 48.45279 7.14999 35322 ft 439 kts 149°
2026-05-01 08:13 48.37198 7.21489 35327 ft 439 kts 149°
2026-05-01 08:13 48.29117 7.27955 35328 ft 439 kts 149°
2026-05-01 08:14 48.23726 7.32255 35327 ft 439 kts 149°
2026-05-01 08:14 48.18321 7.36554 35324 ft 440 kts 149°
2026-05-01 08:15 48.10208 7.42992 35325 ft 440 kts 149°
2026-05-01 08:16 48.04796 7.47273 35321 ft 440 kts 149°
2026-05-01 08:16 47.99376 7.51553 35324 ft 441 kts 149°
2026-05-01 08:17 47.93972 7.55872 35317 ft 439 kts 144°
2026-05-01 08:17 47.91642 7.58749 35324 ft 432 kts 128°
2026-05-01 08:17 47.89856 7.62308 35326 ft 427 kts 116°
2026-05-01 08:18 47.87650 7.70422 35328 ft 423 kts 107°
2026-05-01 08:19 47.83925 7.85529 35320 ft 425 kts 107°
2026-05-01 08:19 47.81837 7.93778 35320 ft 427 kts 107°
2026-05-01 08:20 47.79731 8.02042 35333 ft 427 kts 108°
2026-05-01 08:20 47.77615 8.10313 35333 ft 428 kts 108°
2026-05-01 08:21 47.75498 8.18557 35333 ft 428 kts 108°
2026-05-01 08:21 47.73379 8.26783 35336 ft 427 kts 107°
2026-05-01 08:22 47.71256 8.34999 35337 ft 425 kts 108°
2026-05-01 08:22 47.69028 8.43134 35338 ft 427 kts 114°
2026-05-01 08:23 47.65586 8.50375 35362 ft 432 kts 125°
2026-05-01 08:23 47.61813 8.57293 35347 ft 432 kts 125°
2026-05-01 08:24 47.58070 8.64178 35352 ft 432 kts 124°
2026-05-01 08:24 47.54325 8.71119 35350 ft 432 kts 124°
2026-05-01 08:25 47.50577 8.78084 35353 ft 432 kts 124°
2026-05-01 08:25 47.46824 8.85047 35346 ft 434 kts 124°
2026-05-01 08:26 47.43053 8.92019 35343 ft 435 kts 124°
2026-05-01 08:26 47.39272 8.98992 35351 ft 435 kts 124°
2026-05-01 08:27 47.35483 9.05965 35351 ft 436 kts 124°
2026-05-01 08:27 47.31687 9.12925 35360 ft 435 kts 124°
2026-05-01 08:28 47.27888 9.19881 35361 ft 436 kts 123°
2026-05-01 08:28 47.24080 9.26834 35340 ft 436 kts 124°
2026-05-01 08:29 47.20269 9.33773 35345 ft 436 kts 123°
2026-05-01 08:29 47.16452 9.40706 35347 ft 436 kts 123°
2026-05-01 08:30 47.12626 9.47636 35348 ft 437 kts 123°
2026-05-01 08:30 47.08797 9.54556 35339 ft 437 kts 123°
2026-05-01 08:31 47.04964 9.61465 35338 ft 436 kts 123°
2026-05-01 08:31 47.01143 9.68335 35346 ft 433 kts 123°
2026-05-01 08:32 46.97340 9.75153 35343 ft 432 kts 123°
2026-05-01 08:32 46.93554 9.81935 35351 ft 434 kts 123°
2026-05-01 08:33 46.89728 9.88765 35345 ft 435 kts 123°
2026-05-01 08:33 46.85886 9.95606 35349 ft 436 kts 123°
2026-05-01 08:34 46.82028 10.02457 35340 ft 437 kts 123°
2026-05-01 08:34 46.78154 10.09319 35360 ft 439 kts 122°
2026-05-01 08:35 46.74257 10.16207 35365 ft 441 kts 122°
2026-05-01 08:35 46.70343 10.23106 35348 ft 442 kts 122°
2026-05-01 08:36 46.66422 10.29997 35341 ft 442 kts 122°
2026-05-01 08:36 46.62506 10.36865 35337 ft 440 kts 122°
2026-05-01 08:37 46.58613 10.43682 35363 ft 437 kts 122°
2026-05-01 08:37 46.54788 10.50506 35350 ft 434 kts 120°
2026-05-01 08:38 46.51222 10.57531 35349 ft 432 kts 118°
2026-05-01 08:38 46.47699 10.64596 35349 ft 431 kts 118°
2026-05-01 08:39 46.44160 10.71616 35342 ft 431 kts 119°
2026-05-01 08:39 46.40596 10.78621 35364 ft 432 kts 119°
2026-05-01 08:40 46.35211 10.89148 35363 ft 434 kts 119°
2026-05-01 08:40 46.31609 10.96169 35351 ft 435 kts 119°
2026-05-01 08:41 46.27997 11.03187 35363 ft 435 kts 119°
2026-05-01 08:41 46.24384 11.10190 35342 ft 434 kts 119°
2026-05-01 08:42 46.20779 11.17162 35346 ft 432 kts 119°
2026-05-01 08:42 46.17185 11.24096 35361 ft 430 kts 118°
2026-05-01 08:43 46.13599 11.31000 35367 ft 430 kts 118°
2026-05-01 08:43 46.10010 11.37893 35359 ft 430 kts 118°
2026-05-01 08:44 46.06415 11.44780 35347 ft 429 kts 118°
2026-05-01 08:44 46.02858 11.51576 35374 ft 428 kts 118°
2026-05-01 08:45 45.99268 11.58424 35378 ft 429 kts 118°
2026-05-01 08:45 45.95669 11.65272 35381 ft 430 kts 118°
2026-05-01 08:46 45.92071 11.72145 35388 ft 430 kts 118°
2026-05-01 08:46 45.88550 11.79108 35386 ft 431 kts 117°
2026-05-01 08:47 45.85034 11.86097 35383 ft 432 kts 117°
2026-05-01 08:47 45.81500 11.93074 35389 ft 431 kts 117°
2026-05-01 08:48 45.77966 12.00014 35398 ft 431 kts 117°
2026-05-01 08:48 45.74433 12.06936 35403 ft 430 kts 117°
2026-05-01 08:49 45.70905 12.13832 35402 ft 430 kts 117°
2026-05-01 08:49 45.67369 12.20726 35406 ft 430 kts 118°
2026-05-01 08:50 45.63830 12.27609 35405 ft 430 kts 118°
2026-05-01 08:50 45.60283 12.34490 35404 ft 430 kts 118°
2026-05-01 08:51 45.56724 12.41378 35404 ft 431 kts 118°
2026-05-01 08:51 45.53156 12.48269 35406 ft 433 kts 118°
2026-05-01 08:52 45.49566 12.55184 35402 ft 434 kts 119°
2026-05-01 08:52 45.45962 12.62109 35397 ft 436 kts 119°
2026-05-01 08:53 45.42343 12.69043 35394 ft 437 kts 119°
2026-05-01 08:53 45.38714 12.75983 35398 ft 438 kts 120°
2026-05-01 08:54 45.35065 12.82944 35399 ft 439 kts 120°
2026-05-01 08:54 45.31404 12.89913 35386 ft 441 kts 120°
2026-05-01 08:55 45.27751 12.96850 35387 ft 442 kts 120°
2026-05-01 08:55 45.24119 13.03886 35386 ft 441 kts 118°
2026-05-01 08:56 45.20655 13.11048 35378 ft 440 kts 117°
2026-05-01 08:56 45.17198 13.18223 35377 ft 441 kts 118°
2026-05-01 08:57 45.13720 13.25373 35377 ft 441 kts 118°
2026-05-01 08:57 45.10228 13.32495 35375 ft 440 kts 118°
2026-05-01 08:58 45.06729 13.39609 35375 ft 440 kts 118°
2026-05-01 08:58 45.03232 13.46701 35379 ft 440 kts 118°
2026-05-01 08:59 44.99729 13.53787 35374 ft 440 kts 119°
2026-05-01 08:59 44.96220 13.60869 35378 ft 440 kts 119°
2026-05-01 09:00 44.92708 13.67942 35377 ft 440 kts 119°
2026-05-01 09:00 44.89180 13.75025 35380 ft 441 kts 119°
2026-05-01 09:01 44.85642 13.82115 35378 ft 443 kts 120°
2026-05-01 09:01 44.82116 13.89162 35384 ft 440 kts 119°
2026-05-01 09:02 44.78621 13.96121 35361 ft 433 kts 120°
2026-05-01 09:02 44.75137 14.03061 35373 ft 435 kts 120°
2026-05-01 09:03 44.71636 14.10014 35368 ft 437 kts 120°
2026-05-01 09:03 44.68115 14.16978 35364 ft 438 kts 120°
2026-05-01 09:04 44.64577 14.23962 35360 ft 439 kts 120°
2026-05-01 09:04 44.61027 14.30955 35353 ft 440 kts 120°
2026-05-01 09:05 44.57468 14.37950 35348 ft 441 kts 121°
2026-05-01 09:05 44.53903 14.44940 35349 ft 441 kts 121°
2026-05-01 09:06 44.50329 14.51930 35345 ft 441 kts 121°
2026-05-01 09:06 44.47332 14.57775 35338 ft 440 kts 121°
2026-05-01 09:07 44.43785 14.64679 35351 ft 439 kts 121°
2026-05-01 09:07 44.40223 14.71600 35345 ft 437 kts 121°
2026-05-01 09:08 44.36669 14.78488 35340 ft 436 kts 121°
2026-05-01 09:08 44.33123 14.85347 35338 ft 435 kts 121°
2026-05-01 09:09 44.29575 14.92196 35340 ft 435 kts 121°
2026-05-01 09:09 44.26023 14.99035 35337 ft 435 kts 121°
2026-05-01 09:10 44.22465 15.05870 35331 ft 436 kts 121°
2026-05-01 09:10 44.18894 15.12707 35329 ft 437 kts 121°
2026-05-01 09:11 44.15311 15.19558 35321 ft 438 kts 121°
2026-05-01 09:11 44.11713 15.26422 35323 ft 440 kts 122°
2026-05-01 09:12 44.08098 15.33299 35322 ft 441 kts 122°
2026-05-01 09:12 44.04467 15.40196 35322 ft 443 kts 122°
2026-05-01 09:13 44.00819 15.47100 35321 ft 444 kts 122°
2026-05-01 09:13 43.97158 15.54014 35314 ft 444 kts 123°
2026-05-01 09:14 43.93513 15.60881 35326 ft 446 kts 123°
2026-05-01 09:14 43.89830 15.67811 35316 ft 447 kts 123°
2026-05-01 09:15 43.86131 15.74747 35319 ft 448 kts 123°
2026-05-01 09:15 43.82418 15.81692 35302 ft 449 kts 123°
2026-05-01 09:16 43.78702 15.88625 35299 ft 449 kts 123°
2026-05-01 09:17 43.73121 15.99012 35289 ft 447 kts 123°
2026-05-01 09:17 43.67554 16.09337 35276 ft 446 kts 124°
2026-05-01 09:18 43.61999 16.19606 35276 ft 444 kts 124°
2026-05-01 09:19 43.56443 16.29834 35265 ft 444 kts 124°
2026-05-01 09:20 43.50883 16.40044 35263 ft 445 kts 124°
2026-05-01 09:21 43.43411 16.53701 35267 ft 448 kts 124°
2026-05-01 09:21 43.37755 16.63991 35277 ft 451 kts 125°
2026-05-01 09:22 43.30181 16.77731 35266 ft 454 kts 125°
2026-05-01 09:23 43.24434 16.88108 35269 ft 456 kts 126°
2026-05-01 09:24 43.18671 16.98478 35255 ft 456 kts 126°
2026-05-01 09:25 43.10937 17.12212 35246 ft 455 kts 127°
2026-05-01 09:26 43.04974 17.22294 35247 ft 454 kts 128°
2026-05-01 09:26 42.99014 17.32368 35240 ft 455 kts 128°
2026-05-01 09:27 42.93051 17.42453 35233 ft 455 kts 128°
2026-05-01 09:28 42.89065 17.49174 35234 ft 456 kts 128°
2026-05-01 09:28 42.85097 17.55851 35234 ft 456 kts 128°
2026-05-01 09:29 42.79100 17.65914 35218 ft 457 kts 129°
2026-05-01 09:30 42.73124 17.75906 34796 ft 446 kts 129°
2026-05-01 09:30 42.71180 17.79150 34471 ft 441 kts 129°
2026-05-01 09:30 42.67326 17.85569 33717 ft 435 kts 129°
2026-05-01 09:31 42.65419 17.88740 33338 ft 432 kts 129°
2026-05-01 09:31 42.63525 17.91885 32961 ft 429 kts 129°
2026-05-01 09:31 42.59770 17.98109 32221 ft 423 kts 129°
2026-05-01 09:32 42.57911 18.01188 31843 ft 421 kts 129°
2026-05-01 09:32 42.54224 18.07287 31109 ft 415 kts 129°
2026-05-01 09:32 42.52397 18.10305 30743 ft 413 kts 129°
2026-05-01 09:33 42.50583 18.13300 30383 ft 410 kts 129°
2026-05-01 09:33 42.48778 18.16274 30024 ft 407 kts 129°
2026-05-01 09:33 42.45208 18.22147 29291 ft 401 kts 129°
2026-05-01 09:34 42.43440 18.25050 28922 ft 398 kts 129°
2026-05-01 09:34 42.41684 18.27931 28555 ft 395 kts 129°
2026-05-01 09:34 42.38216 18.33616 27829 ft 389 kts 129°
2026-05-01 09:35 42.36524 18.36385 27462 ft 386 kts 129°
2026-05-01 09:35 42.33128 18.41930 26763 ft 380 kts 129°
2026-05-01 09:35 42.31452 18.44664 26400 ft 377 kts 129°
2026-05-01 09:36 42.29783 18.47385 26053 ft 374 kts 129°
2026-05-01 09:36 42.28126 18.50084 25714 ft 372 kts 129°
2026-05-01 09:36 42.26483 18.52759 25364 ft 369 kts 129°
2026-05-01 09:36 42.24849 18.55415 25023 ft 366 kts 129°
2026-05-01 09:37 42.23229 18.58047 24681 ft 363 kts 129°
2026-05-01 09:37 42.20020 18.63253 24002 ft 358 kts 129°
2026-05-01 09:37 42.18432 18.65825 23668 ft 355 kts 129°
2026-05-01 09:38 42.15290 18.70910 22999 ft 350 kts 129°
2026-05-01 09:38 42.13734 18.73424 22669 ft 348 kts 129°
2026-05-01 09:38 42.12186 18.75922 22343 ft 346 kts 129°
2026-05-01 09:39 42.09125 18.80858 21682 ft 341 kts 129°
2026-05-01 09:39 42.07609 18.83298 21366 ft 338 kts 129°
2026-05-01 09:39 42.06106 18.85717 21038 ft 336 kts 129°
2026-05-01 09:40 42.04612 18.88120 20719 ft 334 kts 129°
2026-05-01 09:40 42.01651 18.92877 20082 ft 330 kts 129°
2026-05-01 09:40 42.00180 18.95237 19770 ft 328 kts 129°
2026-05-01 09:41 41.98721 18.97576 19451 ft 326 kts 129°
2026-05-01 09:41 41.95839 19.02193 18831 ft 323 kts 130°
2026-05-01 09:41 41.94397 19.04500 18518 ft 321 kts 130°
2026-05-01 09:42 41.92964 19.06791 18214 ft 320 kts 130°
2026-05-01 09:42 41.91536 19.09072 17899 ft 318 kts 130°
2026-05-01 09:42 41.88702 19.13591 17283 ft 315 kts 130°
2026-05-01 09:43 41.85899 19.18057 16672 ft 311 kts 130°
2026-05-01 09:43 41.84507 19.20272 16375 ft 310 kts 130°
2026-05-01 09:43 41.83123 19.22472 16069 ft 308 kts 130°
2026-05-01 09:44 41.80372 19.26842 15474 ft 305 kts 130°
2026-05-01 09:44 41.79004 19.29010 15182 ft 304 kts 130°
2026-05-01 09:44 41.77644 19.31165 14873 ft 302 kts 130°
2026-05-01 09:45 41.76308 19.33294 14749 ft 294 kts 130°
2026-05-01 09:45 41.73669 19.37521 14233 ft 297 kts 129°
2026-05-01 09:45 41.72332 19.39661 13917 ft 302 kts 129°
2026-05-01 09:46 41.70989 19.41810 13610 ft 300 kts 129°
2026-05-01 09:46 41.69651 19.43948 13303 ft 299 kts 129°
2026-05-01 09:46 41.68320 19.46072 13019 ft 297 kts 129°
2026-05-01 09:46 41.66996 19.48182 12693 ft 296 kts 129°
2026-05-01 09:47 41.65674 19.50287 12384 ft 295 kts 129°
2026-05-01 09:47 41.64312 19.52321 12075 ft 293 kts 140°
2026-05-01 09:47 41.62523 19.53574 11786 ft 292 kts 165°
2026-05-01 09:47 41.60532 19.54004 11515 ft 289 kts 173°
2026-05-01 09:48 41.58531 19.54270 11209 ft 289 kts 174°
2026-05-01 09:48 41.56532 19.54510 10915 ft 288 kts 174°
2026-05-01 09:48 41.54538 19.54753 10609 ft 288 kts 174°
2026-05-01 09:48 41.52546 19.55002 10300 ft 287 kts 174°
2026-05-01 09:49 41.50584 19.55254 10127 ft 281 kts 173°
2026-05-01 09:49 41.48628 19.55511 9784 ft 283 kts 173°
2026-05-01 09:49 41.46667 19.55771 9493 ft 283 kts 173°
2026-05-01 09:49 41.44707 19.56034 9194 ft 283 kts 173°
2026-05-01 09:50 41.42748 19.56298 8910 ft 283 kts 173°
2026-05-01 09:50 41.40821 19.56558 8624 ft 282 kts 173°
2026-05-01 09:50 41.38845 19.56825 8325 ft 281 kts 173°
2026-05-01 09:50 41.36932 19.57085 8042 ft 280 kts 173°
2026-05-01 09:51 41.34996 19.57346 7747 ft 280 kts 173°
2026-05-01 09:51 41.33060 19.57609 7453 ft 280 kts 173°
2026-05-01 09:51 41.31124 19.57871 7148 ft 279 kts 173°
2026-05-01 09:51 41.29191 19.58131 6867 ft 279 kts 173°
2026-05-01 09:52 41.27256 19.58392 6570 ft 279 kts 173°
2026-05-01 09:52 41.25328 19.58658 6302 ft 278 kts 173°
2026-05-01 09:52 41.23406 19.58922 6013 ft 277 kts 173°
2026-05-01 09:52 41.21494 19.59175 5737 ft 276 kts 173°
2026-05-01 09:53 41.19654 19.59786 5456 ft 272 kts 149°
2026-05-01 09:53 41.18293 19.61461 5194 ft 266 kts 120°
2026-05-01 09:53 41.17651 19.63724 4923 ft 262 kts 97°
2026-05-01 09:53 41.17668 19.66114 4716 ft 257 kts 84°
2026-05-01 09:54 41.17852 19.68489 4398 ft 260 kts 83°
2026-05-01 09:54 41.18106 19.70868 4157 ft 259 kts 74°
2026-05-01 09:54 41.18965 19.72897 4049 ft 250 kts 44°
2026-05-01 09:54 41.20428 19.74031 3963 ft 243 kts 14°
2026-05-01 09:55 41.22059 19.74204 3905 ft 229 kts
2026-05-01 09:55 41.23596 19.74069 3808 ft 215 kts 355°
2026-05-01 09:55 41.25054 19.73980 3560 ft 209 kts 356°
2026-05-01 09:55 41.26476 19.73930 3270 ft 198 kts 359°
2026-05-01 09:56 41.27823 19.73877 2996 ft 188 kts 359°
2026-05-01 09:56 41.29102 19.73817 2689 ft 180 kts 359°
2026-05-01 09:56 41.30314 19.73755 2424 ft 171 kts 359°
2026-05-01 09:56 41.31484 19.73683 2148 ft 165 kts 359°
2026-05-01 09:57 41.32237 19.73635 2061 ft 166 kts 359°
2026-05-01 09:57 41.33352 19.73336 1879 ft 161 kts 346°
2026-05-01 09:57 41.34415 19.73028 1635 ft 151 kts 352°
2026-05-01 09:57 41.35420 19.72839 1350 ft 141 kts 357°
2026-05-01 09:58 41.36382 19.72725 1093 ft 138 kts 357°
2026-05-01 09:58 41.37340 19.72598 837 ft 139 kts 356°
2026-05-01 09:58 41.38304 19.72481 637 ft 138 kts 357°
2026-05-01 09:58 41.39268 19.72352 385 ft 140 kts 356°
2026-05-01 09:59 41.40233 19.72221 179 ft 139 kts 356°
2026-05-01 09:59 41.41191 19.72093 126 ft 130 kts 354°
2026-05-01 09:59 41.41929 19.71997 121 ft 86 kts 354°
2026-05-01 09:59 41.42343 19.71940 118 ft 38 kts 354°
2026-05-01 10:00 41.42574 19.71900 116 ft 28 kts 330°
2026-05-01 10:00 41.42684 19.71878 115 ft 13 kts 91°
2026-05-01 10:00 41.42595 19.71908 117 ft 19 kts 174°
2026-05-01 10:00 41.42450 19.71927 114 ft 21 kts 174°
2026-05-01 10:01 41.42328 19.71944 120 ft 7 kts 174°
2026-05-01 10:01 41.42284 19.71863 119 ft 22 kts 261°
2026-05-01 10:01 41.42269 19.71685 117 ft 16 kts 264°
2026-05-01 10:01 41.42255 19.71568 117 ft 10 kts 235°
2026-05-01 10:02 41.42170 19.71551 118 ft 17 kts 173°
2026-05-01 10:02 41.42063 19.71565 120 ft 16 kts 174°
2026-05-01 10:02 41.41969 19.71578 119 ft 11 kts 174°
2026-05-01 10:02 41.41938 19.71583 121 ft 2 kts 174°
2026-05-01 10:03 41.41917 19.71578 119 ft 4 kts 216°
2026-05-01 10:03 41.41912 19.71541 122 ft 4 kts 263°
2026-05-01 10:03 41.41910 19.71522 122 ft 0 kts 264°
2026-05-01 10:03 41.41910 19.71520 122 ft 0 kts 264°